STARLINK-38095, 100179

Orbit data source: Space-Track

STARLINK-38095, 100179 is a payload satellite owned by SpaceX/Seattle (US) in SSO that was launched on Sat, 01 Aug 2026 UTC launched from the Air Force Western Test Range (AFWTR). Payload-class satellites include a variety of spacecraft equipped with specific instruments for various scientific and technological missions. These include communications satellites like Starlink; space stations such as the ISS; scientific satellites like the Hubble; Earth observation satellites from companies like Planet Labs, Umbra, and HawkEye 360; GPS; miniature CubeSats for education and research; and military/defense satellites.

Loading next visibility...
Identifier
100179, 2026-175A
Orbit
SSO
Country
Flag of USUS
Related business
Manufacturer
SpaceX/Seattle
Mission
Operational spacecraft
Bus & Motor
STARLINK V2MO, Unknown motor
Mass
575 kg wet, ~530 kg dry
Launch date (UTC)
2026-08-01 (2 months ago)
Launch vehicle
Unknown
Launch site
Air Force Western Test Range (AFWTR)
Object type
Payload
Rocket body
Debris
Shape & HBR
BOX + PAN, 17.7 m
Radar Cross Section
Large (>1 m²)

Expand to show TLE details & history
Last TLE update: 9 hours ago

TLE from 9 hours ago
0 STARLINK-38095
1 A0179U 26175A   26263.88004009 -.00533460  00000-0 -45350-2 0  9998
2 A0179  97.2846 106.2967 0001079  66.9717 293.1660 15.71072986  9236
Epoch: 2026-09-20T21:07Z
TLE epoch observation values (Epoch: 2026-09-20T21:07:15.463Z)
Latitude
-0.00001°
Longitude
149.71439°
Altitude
358.706 km
Speed
7.694 km/s
True Right ascension
07h 05m 11s
True Declination
0° 00' 00"
Sunlit
Object was in daylight at epoch
Visualization orbit readout
Latitude
Unknown
Longitude
Unknown
Altitude
Unknown
Speed
Unknown
Apparent Right ascension
Unknown
Apparent Declination
Unknown
Sunlit
N/A
Visualization observer readout
Local Sidereal Time
23:00:04
Azimuth
Unknown
Elevation
Unknown
Doppler factor
Unknown
Orbital elements
Apogee altitude
353.448 km
Perigee altitude
351.996 km
Semi-major axis
6,730.859 km
Eccentricity
0.00011
Inclination
97.2846°
RAAN
106.2967°
Arg. of periapsis
66.9717°
True anomaly
293.15463°
Mean anomaly
293.166°
Eccentric anomaly
293.16032°
Mean motion
3.93041 °/min
Orbital period
91.59 mins
BSTAR
-0.004535
Loading maneuver chart data...
Computing Atmospheric mass density...
Loading historical data...
Loading historical data...
Loading historical data...
Loading historical data...
Loading historical data...
Loading historical data...
Loading historical data...

Documentation

Showing up to 5 results
|